Location: ????????
(56.1167°N, 38.6333°E)
Time: 21:34:54
(UTC+00:00)

Cosmos 1300 Rocket - Pass Details

Date: 18 November 2025
Orbit: 594 x 620 km, 82.5° (Epoch: 06 December)

Event Time Altitude Azimuth Distance (km) Brightness Sun altitude
Rises 14:14:16 0° 179° (S) 2,881 7.3 -8.5°
Reaches altitude 10° 14:16:30 10° 176° (S) 1,977 6.4 -8.8°
Maximum altitude 14:20:49 60° 97° (E) 707 3.6 -9.3°
Drops below altitude 10° 14:25:08 10° 18° (NNE) 1,978 5.8 -9.9°
Sets 14:27:22 0° 15° (NNE) 2,883 6.7 -10.2°
